TimeEDT,TemperatureF,Dew PointF,Humidity,Sea Level PressureIn,VisibilityMPH,Wind Direction,Wind SpeedMPH,Gust SpeedMPH,PrecipitationIn,Events,Conditions,WindDirDegrees,DateUTC
12:54 AM,60.1,54.0,80,30.24,6.0,SE,6.9,-,N/A,,Haze,140,2007-03-27 04:54:00
1:54 AM,59.0,53.1,81,30.24,6.0,South,4.6,-,N/A,,Haze,180,2007-03-27 05:54:00
2:54 AM,59.0,53.1,81,30.23,6.0,Calm,Calm,-,N/A,,Haze,0,2007-03-27 06:54:00
3:54 AM,55.9,53.1,90,30.21,5.0,Calm,Calm,-,N/A,,Clear,0,2007-03-27 07:54:00
4:54 AM,54.0,51.1,90,30.20,4.0,South,3.5,-,N/A,,Clear,180,2007-03-27 08:54:00
5:54 AM,53.1,51.1,93,30.21,3.0,Calm,Calm,-,N/A,,Clear,0,2007-03-27 09:54:00
6:46 AM,53.6,51.8,94,30.27,2.5,Calm,Calm,-,N/A,,Clear,0,2007-03-27 10:46:00
6:54 AM,52.0,50.0,93,30.23,4.0,Calm,Calm,-,N/A,,Clear,0,2007-03-27 10:54:00
7:54 AM,52.0,48.9,89,30.25,3.0,NNW,4.6,-,N/A,,Clear,330,2007-03-27 11:54:00
8:54 AM,57.0,53.1,87,30.26,3.0,Calm,Calm,-,N/A,,Clear,0,2007-03-27 12:54:00
9:54 AM,62.1,54.0,75,30.25,5.0,Calm,Calm,-,N/A,,Haze,0,2007-03-27 13:54:00
10:54 AM,64.0,55.0,73,30.25,5.0,Variable,4.6,-,N/A,,Haze,0,2007-03-27 14:54:00
11:54 AM,73.0,54.0,51,30.22,10.0,Variable,6.9,-,N/A,,Clear,0,2007-03-27 15:54:00
12:54 PM,75.9,52.0,43,30.19,10.0,NNW,11.5,-,N/A,,Clear,340,2007-03-27 16:54:00
1:54 PM,75.9,51.1,42,30.18,10.0,WNW,9.2,-,N/A,,Scattered Clouds,300,2007-03-27 17:54:00
2:54 PM,77.0,50.0,39,30.16,10.0,Variable,4.6,-,N/A,,Partly Cloudy,0,2007-03-27 18:54:00
3:54 PM,77.0,50.0,39,30.14,10.0,Calm,Calm,-,N/A,,Clear,0,2007-03-27 19:54:00
4:54 PM,75.9,50.0,40,30.13,10.0,Calm,Calm,-,N/A,,Partly Cloudy,0,2007-03-27 20:54:00
5:54 PM,75.0,54.0,48,30.13,10.0,SSW,8.1,-,N/A,,Clear,210,2007-03-27 21:54:00
6:54 PM,73.9,55.0,52,30.14,10.0,South,5.8,-,N/A,,Clear,180,2007-03-27 22:54:00
7:54 PM,70.0,53.1,55,30.16,10.0,South,8.1,-,N/A,,Clear,180,2007-03-27 23:54:00
8:54 PM,66.9,54.0,63,30.16,10.0,South,4.6,-,N/A,,Clear,180,2007-03-28 00:54:00
9:54 PM,64.9,53.1,65,30.16,10.0,SE,3.5,-,N/A,,Clear,140,2007-03-28 01:54:00
10:54 PM,64.9,53.1,65,30.16,10.0,Calm,Calm,-,N/A,,Clear,0,2007-03-28 02:54:00
11:54 PM,63.0,53.1,70,30.15,10.0,Calm,Calm,-,N/A,,Clear,0,2007-03-28 03:54:00